SL-8 R/B, 3577

Orbit data source: Space-Track

SL-8 R/B, 3577 is space debris in LEO originally from a launch on Sat, 30 Nov 1968 UTC launched from the Plesetsk Missile And Space Complex (PKMTR). Debris objects in space refer to the collection of defunct objects orbiting the Earth. Examples of debris include non-operational satellites, rocket bodies, and fragments generated from explosions, collisions, or faulty payload assembly.

Loading next visibility...
Identifier
3577, 1968-106B
Orbit
LEO
Country
Flag of CISCIS
Related business
Manufacturer
Yuzhnoe
Mission
Spacecraft
Bus & Motor
S3, Unknown motor
Mass
1,434 kg wet, 1,434 kg dry
Launch date (UTC)
1968-11-30 (58 years ago)
Launch vehicle
Unknown
Launch site
Plesetsk Missile And Space Complex (PKMTR)
Object type
Payload
Rocket body
Debris
Shape & HBR
Unknown
Radar Cross Section
Large (>1 m²)

Expand to show TLE details & history
Last TLE update: 6 hours ago

TLE from 6 hours ago
0 SL-8 R/B
1 03577U 68106B   26165.58464579 -.00000067  00000-0 -11987-3 0  9995
2 03577  74.0513 351.5015 0034971 336.0312  81.1658 13.19135443769056
Epoch: 2026-06-14T14:01Z
TLE epoch observation values (Epoch: 2026-06-14T14:01:53.396Z)
Latitude
54.37164°
Longitude
-98.48031°
Altitude
1,192.631 km
Speed
7.265 km/s
True Right ascension
00h 59m 30s
True Declination
54° 13' 05"
Sunlit
Object was in daylight at epoch
Visualization orbit readout
Latitude
Unknown
Longitude
Unknown
Altitude
Unknown
Speed
Unknown
Apparent Right ascension
Unknown
Apparent Declination
Unknown
Sunlit
N/A
Visualization observer readout
Local Sidereal Time
06:34:10
Azimuth
Unknown
Elevation
Unknown
Doppler factor
Unknown
Orbital elements
Apogee altitude
1,212.23 km
Perigee altitude
1,159.326 km
Semi-major axis
7,563.915 km
Eccentricity
0.0035
Inclination
74.0513°
RAAN
351.5015°
Arg. of periapsis
336.0312°
True anomaly
81.56205°
Mean anomaly
81.1658°
Eccentric anomaly
81.3639°
Mean motion
3.29931 °/min
Orbital period
109.11 mins
BSTAR
-0.00011987
Loading maneuver chart data...
Computing Atmospheric mass density...
Loading historical data...
Loading historical data...
Loading historical data...
Loading historical data...
Loading historical data...
Loading historical data...
Loading historical data...
Other satellites on launch #106 in the year 1968 (1968-11-30 UTC)

Documentation

Showing up to 5 results
|